Date String (YYYY-MM-DD hh:mm:ss) UTC,Instrument flags,Ambient pressure (hPa),Sample flow (lpm),Bypass flow (lpm),Sample temperature (°C),Ambient temperature (°C),ASC tube jacket temperature (°C),LED temperature (°C),Box temperature (°C),Sample RH (%),Span deviation,Mass concentration (μg/m³),Mass concentration (μg/m³),Mass concentration (μg/m³)
DateTimeUTC,F1_M11,P_M11,Q1_M11,Q2_M11,T1_M11,T2_M11,T3_M11,T4_M11,T5_M11,U1_M11,ZSPAN_M11,X0_M11,X2_M11,X1_M11
2021-09-23 10:00:00,,0827.7,4.99,0.00,30.6,29.7,00.0,39.7,32.3,08.7,0000.0,0008.06,0001.94,0001.27
2021-09-23 10:01:00,,0827.8,5.02,0.00,30.6,29.7,00.0,39.7,32.3,08.8,0000.0,0008.40,0001.95,0001.27
2021-09-23 10:02:00,,0827.7,5.00,0.00,30.6,29.7,00.0,39.7,32.3,08.8,0000.0,0008.19,0001.92,0001.27
2021-09-23 10:03:00,,0827.7,4.99,0.00,30.6,29.7,00.0,39.7,32.4,08.8,0000.0,0007.99,0001.93,0001.28
2021-09-23 10:04:00,,0827.8,5.00,0.00,30.6,29.7,00.0,39.7,32.3,08.6,0000.0,0007.91,0001.92,0001.28
2021-09-23 10:05:00,,0827.9,5.01,0.00,30.6,29.7,00.0,39.7,32.4,08.7,0000.0,0007.95,0001.93,0001.27
2021-09-23 10:06:00,,0827.9,5.01,0.00,30.6,29.7,00.0,39.7,32.4,08.8,0000.0,0007.74,0001.94,0001.28
2021-09-23 10:07:00,,0827.8,4.99,0.00,30.6,29.7,00.0,39.7,32.3,08.8,0000.0,0008.11,0001.93,0001.28
2021-09-23 10:08:00,,0827.9,5.01,0.00,30.6,29.7,00.0,39.7,32.4,08.7,0000.0,0008.24,0001.94,0001.28
2021-09-23 10:09:00,,0827.9,5.01,0.00,30.6,29.7,00.0,39.7,32.3,08.7,0000.0,0008.23,0001.93,0001.27
2021-09-23 10:10:00,,0827.8,5.00,0.00,30.6,29.1,00.0,39.7,32.1,08.6,0000.0,0007.75,0001.96,0001.28
2021-09-23 10:11:00,,0827.7,5.00,0.00,30.4,26.9,00.0,39.7,31.5,08.6,0000.0,0007.02,0001.93,0001.28
2021-09-23 10:12:00,,0827.7,4.99,0.00,30.2,26.5,00.0,39.6,31.4,08.7,0000.0,0005.91,0001.88,0001.28
2021-09-23 10:13:00,,0827.7,5.00,0.00,30.1,26.8,00.0,39.5,31.4,08.7,0000.0,0005.53,0001.85,0001.28
2021-09-23 10:14:00,,0827.7,5.00,0.00,30.1,27.2,00.0,39.5,31.5,08.8,0000.0,0005.40,0001.83,0001.26
2021-09-23 10:15:00,,0827.7,5.00,0.00,30.0,27.6,00.0,39.4,31.5,08.8,0000.0,0005.73,0001.85,0001.26
2021-09-23 10:16:00,,0827.8,5.01,0.00,30.0,27.9,00.0,39.4,31.6,08.8,0000.0,0005.86,0001.88,0001.26
2021-09-23 10:17:00,,0827.8,5.00,0.00,30.0,28.2,00.0,39.4,31.6,08.8,0000.0,0005.79,0001.85,0001.26
2021-09-23 10:18:00,,0827.7,4.99,0.00,30.0,28.4,00.0,39.3,31.7,08.9,0000.0,0004.53,0001.82,0001.26
2021-09-23 10:19:00,,0827.7,5.00,0.00,30.0,28.6,00.0,39.3,31.8,09.0,0000.0,0004.63,0001.84,0001.26
2021-09-23 10:20:00,,0827.8,4.99,0.00,30.1,28.7,00.0,39.3,31.8,08.9,0000.0,0004.94,0001.85,0001.25
2021-09-23 10:21:00,,0827.8,5.01,0.00,30.1,28.8,00.0,39.3,31.8,09.1,0000.0,0005.79,0001.92,0001.26
2021-09-23 10:22:00,,0827.8,5.00,0.00,30.1,28.9,00.0,39.3,31.9,09.4,0000.0,0006.25,0001.96,0001.27
2021-09-23 10:23:00,,0827.7,5.00,0.00,30.1,29.0,00.0,39.3,31.9,09.3,0000.0,0006.58,0002.01,0001.28
2021-09-23 10:24:00,,0827.7,5.00,0.00,30.1,29.0,00.0,39.3,31.9,09.2,0000.0,0006.73,0002.04,0001.30
2021-09-23 10:25:00,,0827.7,5.00,0.00,30.1,29.1,00.0,39.3,31.9,09.4,0000.0,0007.75,0002.12,0001.33
2021-09-23 10:26:00,,0827.7,4.99,0.00,30.1,29.1,00.0,39.3,31.9,09.0,0000.0,0008.58,0002.15,0001.34
2021-09-23 10:27:00,,0827.7,4.99,0.00,30.2,29.1,00.0,39.3,31.9,08.9,0000.0,0008.55,0002.15,0001.34
2021-09-23 10:28:00,,0827.8,5.00,0.00,30.2,29.2,00.0,39.3,31.9,09.0,0000.0,0008.58,0002.20,0001.35
2021-09-23 10:29:00,,0827.9,5.01,0.00,30.2,29.2,00.0,39.3,31.9,09.1,0000.0,0008.69,0002.21,0001.36
2021-09-23 10:30:00,,0827.9,4.99,0.00,30.2,29.2,00.0,39.3,32.0,09.4,0000.0,0008.99,0002.25,0001.37
2021-09-23 10:31:00,,0827.8,5.00,0.00,30.2,29.3,00.0,39.3,32.0,09.7,0000.0,0009.19,0002.27,0001.39
2021-09-23 10:32:00,,0827.7,5.01,0.00,30.2,29.3,00.0,39.3,32.0,09.4,0000.0,0009.03,0002.21,0001.40
2021-09-23 10:33:00,,0827.8,4.99,0.00,30.2,29.3,00.0,39.3,32.0,09.3,0000.0,0009.14,0002.21,0001.40
2021-09-23 10:34:00,,0827.8,5.01,0.00,30.2,29.4,00.0,39.3,32.0,09.1,0000.0,0009.55,0002.27,0001.40
2021-09-23 10:35:00,,0827.8,4.99,0.00,30.3,29.4,00.0,39.3,32.0,09.0,0000.0,0009.94,0002.35,0001.41
2021-09-23 10:36:00,,0827.8,5.01,0.00,30.3,29.4,00.0,39.3,32.0,08.9,0000.0,0010.15,0002.36,0001.41
2021-09-23 10:37:00,,0827.8,4.99,0.00,30.3,29.4,00.0,39.4,32.0,08.7,0000.0,0009.00,0002.35,0001.40
2021-09-23 10:38:00,,0827.8,5.00,0.00,30.3,29.4,00.0,39.4,32.0,08.6,0000.0,0009.58,0002.35,0001.40
2021-09-23 10:39:00,,0827.8,5.00,0.00,30.3,29.4,00.0,39.4,32.1,08.6,0000.0,0009.87,0002.37,0001.38
2021-09-23 10:40:00,,0827.8,4.99,0.00,30.3,29.5,00.0,39.4,32.1,08.6,0000.0,0010.25,0002.39,0001.38
2021-09-23 10:41:00,,0827.8,4.99,0.00,30.3,29.5,00.0,39.4,32.1,08.8,0000.0,0010.29,0002.31,0001.36
2021-09-23 10:42:00,,0827.8,5.01,0.00,30.3,29.5,00.0,39.4,32.1,08.6,0000.0,0009.97,0002.27,0001.35
2021-09-23 10:43:00,,0827.7,4.99,0.00,30.4,29.5,00.0,39.4,32.1,08.5,0000.0,0010.09,0002.25,0001.33
2021-09-23 10:44:00,,0827.7,4.99,0.00,30.4,29.5,00.0,39.4,32.1,08.4,0000.0,0010.54,0002.22,0001.32
2021-09-23 10:45:00,,0827.8,5.01,0.00,30.4,29.5,00.0,39.5,32.1,08.4,0000.0,0010.35,0002.09,0001.29
2021-09-23 10:46:00,,0827.8,4.99,0.00,30.4,29.5,00.0,39.5,32.1,08.4,0000.0,0009.93,0001.99,0001.27
2021-09-23 10:47:00,,0827.7,5.01,0.00,30.4,29.5,00.0,39.5,32.1,08.4,0000.0,0009.73,0001.92,0001.26
2021-09-23 10:48:00,,0827.7,5.00,0.00,30.4,29.5,00.0,39.5,32.1,08.4,0000.0,0010.09,0001.90,0001.25
2021-09-23 10:49:00,,0827.7,4.99,0.00,30.4,29.6,00.0,39.5,32.1,08.4,0000.0,0009.41,0001.87,0001.25
2021-09-23 10:50:00,,0827.7,5.01,0.00,30.4,29.6,00.0,39.5,32.1,08.3,0000.0,0009.48,0001.82,0001.25
2021-09-23 10:51:00,,0827.7,4.99,0.00,30.4,29.6,00.0,39.5,32.1,08.3,0000.0,0009.09,0001.81,0001.24
2021-09-23 10:52:00,,0827.8,5.00,0.00,30.4,29.6,00.0,39.5,32.2,08.3,0000.0,0008.58,0001.82,0001.22
2021-09-23 10:53:00,,0827.7,5.00,0.00,30.4,29.6,00.0,39.5,32.2,08.3,0000.0,0008.42,0001.83,0001.20
2021-09-23 10:54:00,,0827.8,4.99,0.00,30.4,29.6,00.0,39.5,32.2,08.3,0000.0,0007.95,0001.83,0001.19
2021-09-23 10:55:00,,0827.8,5.00,0.00,30.4,29.6,00.0,39.5,32.2,08.2,0000.0,0006.99,0001.78,0001.18
2021-09-23 10:56:00,,0827.7,5.00,0.00,30.4,29.6,00.0,39.6,32.2,08.2,0000.0,0006.52,0001.82,0001.18
2021-09-23 10:57:00,,0827.7,5.01,0.00,30.5,29.6,00.0,39.6,32.2,08.2,0000.0,0006.87,0001.83,0001.17
2021-09-23 10:58:00,,0827.7,5.00,0.00,30.5,29.6,00.0,39.6,32.2,08.2,0000.0,0006.47,0001.85,0001.16
2021-09-23 10:59:00,,0827.7,4.99,0.00,30.5,29.6,00.0,39.6,32.2,08.2,0000.0,0005.31,0001.84,0001.15
